Location: Arrien
(42.8963°N, 1.0429°E)
Time: 14:38:42
(UTC+00:00)

BlueWalker 3 - Pass Details

Date: 20 February 2026
Orbit: 451 x 457 km, 53.2° (Epoch: 14 March)

Event Time Altitude Azimuth Distance (km) Brightness Sun altitude
Rises 05:59:37 0° 184° (S) 2,459 5.5 -9.2°
Reaches altitude 10° 06:02:45 10° 154° (SSE) 1,590 5.0 -8.6°
Maximum altitude 06:04:20 13° 127° (SE) 1,442 5.3 -8.3°
Drops below altitude 10° 06:05:56 10° 101° (E) 1,594 6.2 -8.1°
Sets 06:09:04 0° 71° (ENE) 2,471 6.7 -7.5°
